Location: Via Auriletto, 13, 10098 Rivoli TO, Italia
(45.0746°N, 7.5214°E)
Time: 22:52:48
(UTC+01:00)

AO-85 - Visible Passes

Search period start: 21 November 2019 00:00
Search period end: 01 December 2019 00:00
Orbit: 514 x 770 km, 64.8° (Epoch: 13 November)

Date Brightness Start Highest point End Pass type
(mag) Time Alt. Az. Time Alt. Az. Time Alt. Az.
25 Nov ? 06:51:12 10° N 06:53:25 14° NNE 06:55:35 10° ENE visible
27 Nov ? 06:00:50 10° NNE 06:01:57 11° NNE 06:03:03 10° NE visible
28 Nov ? 06:24:11 10° N 06:27:07 19° NE 06:29:57 10° E visible
29 Nov ? 06:48:16 10° NNW 06:52:02 37° NE 06:55:39 10° ESE visible
30 Nov ? 05:33:55 11° N 05:35:42 14° NNE 05:37:55 10° ENE visible
